HS2LXA-13 Weather Reports


Display with metric or nautical units.
time (UTC)temp
F
wind
direction
speed
MPH
gust
MPH
rain 1hr
in
rain 24hr
in
rain mn
in
humidity
%
barometer
mb
20260508114953 81 0 0.0 0.0 0.00 0.00 0.00 85 1008.8
20260508113951 81 90 0.0 0.0 0.00 0.00 0.00 86 1008.5
20260508112949 81 0 0.0 0.0 0.00 0.00 0.00 86 1008.4
20260508111948 81 0 0.0 0.0 0.00 0.00 0.00 86 1008.2
20260508110946 81 0 0.0 0.0 0.00 0.00 0.00 86 1007.7
20260508105946 82 22 0.0 0.0 0.00 0.00 0.00 86 1007.4
20260508104934 81 0 0.0 0.0 0.00 0.00 0.00 85 1007.4
20260508103933 81 0 0.0 0.0 0.00 0.00 0.00 85 1007.4
20260508102930 81 0 0.0 0.0 0.00 0.00 0.00 86 1007.3
20260508101927 82 0 0.0 0.0 0.00 0.00 0.00 85 1007.3
20260508100925 82 0 0.0 0.0 0.00 0.00 0.00 85 1007.3
20260508095924 81 0 0.0 0.0 0.00 0.00 0.00 83 1007.4
20260508094922 82 0 0.0 0.0 0.00 0.00 0.00 84 1007.6
20260508093921 82 0 0.0 0.0 0.00 0.00 0.00 83 1007.6
20260508092920 82 22 0.0 0.0 0.00 0.00 0.00 83 1007.5
20260508091920 82 0 0.0 0.0 0.00 0.00 0.00 82 1007.2
20260508090918 82 67 0.0 0.0 0.00 0.00 0.00 81 1007.1
20260508085915 82 0 0.0 0.0 0.00 0.00 0.00 81 1007.1
20260508084913 82 202 0.0 0.0 0.00 0.00 0.00 81 1007.3
20260508083913 82 90 0.0 0.0 0.00 0.00 0.00 81 1007.4
20260508082909 82 90 0.0 0.0 0.00 0.00 0.00 82 1007.6
20260508081907 81 112 0.0 0.0 0.00 0.00 0.00 83 1007.8
20260508080907 81 270 4.0 11.0 0.00 0.00 0.00 83 1007.6
20260508075411 81 0 10.0 23.0 0.00 0.00 0.00 80 1007.9
20260508074408 81 0 13.0 29.0 0.00 0.00 0.00 80 1007.7
20260508073406 83 0 16.0 37.0 0.00 0.00 0.00 80 1007.8
20260508072404 90 0 1.0 3.0 0.00 0.00 0.00 86 1008.1
20260508071405 90 225 0.0 0.0 0.00 0.00 0.00 87 1008.0
20260508070403 90 112 0.0 0.0 0.00 0.00 0.00 86 1007.6
20260508065402 90 112 0.0 0.0 0.00 0.00 0.00 86 1007.9
20260508064359 91 112 0.0 0.0 0.00 0.00 0.00 85 1008.1
20260508063358 92 225 0.0 0.0 0.00 0.00 0.00 85 1008.5
20260508062356 93 67 6.0 13.0 0.00 0.00 0.00 86 1008.6
20260508061356 93 112 0.0 1.0 0.00 0.00 0.00 87 1008.9
20260508060354 93 315 0.0 0.0 0.00 0.00 0.00 88 1008.9
20260508055351 92 112 0.0 0.0 0.00 0.00 0.00 86 1009.1
20260508054357 92 112 2.0 5.0 0.00 0.00 0.00 86 1009.3
20260508053351 90 337 0.0 0.0 0.00 0.00 0.00 86 1009.3
20260508052349 90 112 0.0 0.0 0.00 0.00 0.00 87 1009.7
20260508051352 90 90 0.0 0.0 0.00 0.00 0.00 86 1010.0
20260508050344 89 67 0.0 0.0 0.00 0.00 0.00 86 1010.1
20260508045341 90 112 0.0 0.0 0.00 0.00 0.00 87 1010.2
20260508044346 90 112 0.0 0.0 0.00 0.00 0.00 87 1010.3
20260508043341 90 112 0.0 0.0 0.00 0.00 0.00 88 1010.5
20260508042338 89 67 0.0 0.0 0.00 0.00 0.00 88 1010.6
20260508041333 89 67 0.0 0.0 0.00 0.00 0.00 88 1010.6
20260508040331 88 67 0.0 0.0 0.00 0.00 0.00 88 1010.7
20260508035323 88 67 0.0 0.0 0.00 0.00 0.00 88 1010.8
20260508034321 89 315 0.0 0.0 0.00 0.00 0.00 88 1010.9
20260508033319 88 67 0.0 0.0 0.00 0.00 0.00 88 1011.0
20260508032315 88 67 0.0 0.0 0.00 0.00 0.00 87 1011.0
20260508031312 88 67 0.0 0.0 0.00 0.00 0.00 87 1011.2
20260508030311 87 67 0.0 0.0 0.00 0.00 0.00 88 1011.2
20260508025311 88 67 0.0 0.0 0.00 0.00 0.00 90 1011.2
20260508024307 87 67 0.0 0.0 0.00 0.00 0.00 88 1011.0
20260508023305 87 67 0.0 0.0 0.00 0.00 0.00 89 1011.0
20260508022307 86 0 0.0 0.0 0.00 0.00 0.00 90 1011.2
20260508021304 86 22 0.0 0.0 0.00 0.00 0.00 90 1011.0
20260508020306 86 90 0.0 0.0 0.00 0.00 0.00 91 1010.9
20260508015300 86 90 0.0 0.0 0.00 0.00 0.00 93 1010.9
20260508014259 86 0 0.0 0.0 0.00 0.00 0.00 93 1010.7
20260508013257 85 22 0.0 0.0 0.00 0.00 0.00 92 1010.5
20260508012255 84 270 0.0 0.0 0.00 0.00 0.00 92 1010.3
20260508011254 84 0 0.0 0.0 0.00 0.00 0.00 92 1010.3
20260508010252 84 225 0.0 0.0 0.00 0.00 0.00 94 1010.2
20260508005251 83 0 0.0 0.0 0.00 0.00 0.00 94 1010.1
20260508004250 83 0 0.0 0.0 0.00 0.00 0.00 95 1010.0
20260508003249 83 225 0.0 0.0 0.00 0.00 0.00 93 1009.9
20260508002248 82 225 0.0 0.0 0.00 0.00 0.00 93 1009.8
20260508001245 82 225 0.0 0.0 0.00 0.00 0.00 93 1009.7
20260508000244 82 225 0.0 0.0 0.00 0.00 0.00 94 1009.6
20260507235241 82 270 0.0 0.0 0.00 0.00 0.00 93 1009.5
20260507234239 82 0 0.0 0.0 0.00 0.00 0.00 92 1009.4
20260507233237 81 0 0.0 0.0 0.00 0.00 0.00 93 1009.2
20260507232238 81 0 0.0 0.0 0.00 0.00 0.00 93 1009.1
20260507231236 81 225 0.0 0.0 0.00 0.00 0.00 95 1009.1
20260507230234 81 112 0.0 0.0 0.00 0.00 0.00 92 1008.9
20260507225232 80 0 0.0 0.0 0.00 0.00 0.00 91 1008.9
20260507224225 80 0 0.0 0.0 0.00 0.00 0.00 91 1008.8
20260507223224 81 225 0.0 0.0 0.00 0.00 0.00 91 1008.8
20260507222222 81 225 0.0 0.0 0.00 0.00 0.00 91 1008.8
20260507221221 81 270 0.0 0.0 0.00 0.00 0.00 90 1008.8
20260507220221 80 0 0.0 0.0 0.00 0.00 0.00 90 1008.7
20260507215220 81 0 0.0 0.0 0.00 0.00 0.00 91 1008.7
20260507214219 81 270 0.0 0.0 0.00 0.00 0.00 90 1008.5
20260507213219 81 270 0.0 0.0 0.00 0.00 0.00 90 1008.4
20260507212217 81 270 0.0 0.0 0.00 0.00 0.00 90 1008.2
20260507211215 81 270 0.0 0.0 0.00 0.00 0.00 90 1008.2
20260507210213 81 0 0.0 0.0 0.00 0.00 0.00 89 1008.0
20260507205212 81 0 0.0 0.0 0.00 0.00 0.00 90 1008.0
20260507204209 81 0 0.0 0.0 0.00 0.00 0.00 89 1008.1
20260507203208 81 0 0.0 0.0 0.00 0.00 0.00 89 1008.1
20260507202203 81 0 0.0 0.0 0.00 0.00 0.00 91 1008.2
20260507201201 81 0 0.0 0.0 0.00 0.00 0.00 89 1008.4
20260507200158 82 22 0.0 0.0 0.00 0.00 0.00 88 1008.4
20260507195156 81 22 0.0 0.0 0.00 0.00 0.00 88 1008.3
20260507194154 81 90 0.0 0.0 0.00 0.00 0.00 88 1008.4
20260507193151 81 22 0.0 0.0 0.00 0.00 0.00 88 1008.5
20260507192150 81 0 0.0 0.0 0.00 0.00 0.00 88 1008.7
20260507191148 82 0 0.0 0.0 0.00 0.00 0.00 88 1008.7
20260507190146 81 0 0.0 0.0 0.00 0.00 0.00 89 1008.9
20260507185146 81 0 0.0 0.0 0.00 0.00 0.00 88 1009.0
20260507184145 82 67 0.0 0.0 0.00 0.00 0.00 88 1009.0
20260507183145 81 225 0.0 0.0 0.00 0.00 0.00 91 1009.0
20260507182142 81 225 0.0 0.0 0.00 0.00 0.00 93 1009.1
20260507181142 82 225 0.0 0.0 0.00 0.00 0.00 93 1009.2
20260507180141 82 225 0.0 0.0 0.00 0.00 0.00 94 1009.2
20260507175138 82 225 0.0 0.0 0.00 0.00 0.00 93 1009.3
20260507174137 83 225 0.0 0.0 0.00 0.00 0.00 92 1009.4
20260507173135 82 225 0.0 0.0 0.00 0.00 0.00 93 1009.5
20260507172130 82 225 0.0 0.0 0.00 0.00 0.00 95 1009.6
20260507171130 82 225 0.0 0.0 0.00 0.00 0.00 96 1009.7
20260507170128 82 0 0.0 0.0 0.00 0.00 0.00 94 1009.8
20260507165127 83 270 0.0 0.0 0.28 0.01 0.32 92 1009.8
20260507164125 83 202 0.0 0.0 0.28 0.01 0.32 92 1009.8
20260507163124 84 202 0.0 0.0 0.28 0.01 0.32 92 1009.7
20260507162124 84 315 0.0 0.0 0.28 0.01 0.32 92 1009.9
20260507161122 84 67 0.0 0.0 0.28 0.01 0.32 92 1010.0
20260507160122 84 67 0.0 0.0 0.28 0.01 0.32 92 1010.1
20260507155115 84 202 0.0 0.0 0.28 0.01 0.32 91 1010.2
20260507154112 85 67 0.0 0.0 0.28 0.01 0.32 91 1010.3
20260507153110 84 67 0.0 0.0 0.28 0.01 0.32 91 1010.1
20260507152101 85 67 0.0 0.0 0.28 0.01 0.32 91 1010.1
20260507151101 84 0 0.0 0.0 0.28 0.01 0.32 91 1009.9
20260507150100 84 0 0.0 0.0 0.28 0.01 0.32 92 1009.9
20260507145056 84 202 0.0 0.0 0.28 0.01 0.32 89 1009.8
20260507144054 84 202 0.0 0.0 0.28 0.01 0.32 88 1009.8
20260507143056 84 202 0.0 0.0 0.28 0.01 0.32 89 1009.8
20260507142053 84 315 0.0 0.0 0.28 0.01 0.32 90 1009.8
20260507141055 84 202 0.0 1.0 0.28 0.01 0.32 90 1009.7
20260507140050 84 202 0.0 0.0 0.28 0.01 0.32 89 1009.9
20260507135049 84 0 0.0 0.0 0.28 0.01 0.32 90 1009.7
20260507134049 84 112 0.0 0.0 0.28 0.01 0.32 89 1009.7
20260507133047 84 112 0.0 0.0 0.28 0.01 0.32 92 1009.7
20260507132046 84 0 0.0 0.0 0.28 0.01 0.32 89 1009.6
20260507131046 84 67 0.0 0.0 0.28 0.01 0.32 87 1009.6
20260507130045 84 112 0.0 0.0 0.28 0.01 0.32 88 1009.4
20260507125043 85 0 0.0 0.0 0.28 0.01 0.32 87 1009.1
20260507124041 85 112 0.0 0.0 0.28 0.01 0.32 87 1008.9
20260507123040 85 315 0.0 0.0 0.28 0.01 0.32 86 1008.7
20260507122039 85 0 0.0 0.0 0.28 0.01 0.32 86 1008.6
20260507121037 85 202 0.0 0.0 0.28 0.01 0.32 86 1008.5
20260507120037 85 67 0.0 0.0 0.28 0.01 0.32 86 1008.2